Time,TemperatureF,DewpointF,PressureIn,WindDirection,WindDirectionDegrees,WindSpeedMPH,WindSpeedGustMPH,Humidity,HourlyPrecipIn,Conditions,Clouds,dailyrainin,SoftwareType,DateUTC
2013-06-02 00:00:00,75.4,65.3,29.97,WNW,289,0.0,0.0,71,0.00,,,0.00,Wunderground v.1.13,2013-06-02 04:00:00,
2013-06-02 00:02:00,75.6,65.5,29.97,WNW,289,0.0,0.0,71,0.00,,,0.00,Wunderground v.1.13,2013-06-02 04:02:00,
2013-06-02 00:06:00,75.4,65.3,29.97,WNW,289,0.0,0.0,71,0.00,,,0.00,Wunderground v.1.13,2013-06-02 04:06:00,
2013-06-02 00:10:00,75.4,65.7,29.97,WNW,289,0.0,0.0,72,0.00,,,0.00,Wunderground v.1.13,2013-06-02 04:10:00,
2013-06-02 00:14:00,75.4,65.3,29.97,WNW,289,0.0,0.0,71,0.00,,,0.00,Wunderground v.1.13,2013-06-02 04:14:00,
2013-06-02 00:16:00,75.4,65.7,29.97,WNW,289,0.0,0.0,72,0.00,,,0.00,Wunderground v.1.13,2013-06-02 04:16:00,
2013-06-02 00:24:00,75.1,65.5,29.97,NW,308,0.0,0.0,72,0.00,,,0.00,Wunderground v.1.13,2013-06-02 04:24:00,
2013-06-02 00:30:00,74.7,65.5,29.97,NW,308,0.0,0.0,73,0.00,,,0.00,Wunderground v.1.13,2013-06-02 04:30:00,
2013-06-02 00:36:00,74.9,65.3,29.96,NW,308,0.0,0.0,72,0.00,,,0.00,Wunderground v.1.13,2013-06-02 04:36:00,
2013-06-02 00:42:00,74.7,65.1,29.96,NW,308,0.0,0.0,72,0.00,,,0.00,Wunderground v.1.13,2013-06-02 04:42:00,
2013-06-02 00:48:00,74.6,65.4,29.97,NW,308,0.0,0.0,73,0.00,,,0.00,Wunderground v.1.13,2013-06-02 04:48:00,
2013-06-02 00:54:00,74.2,65.0,29.97,NW,308,0.0,0.0,73,0.00,,,0.00,Wunderground v.1.13,2013-06-02 04:54:00,
2013-06-02 01:00:00,73.9,65.1,29.97,NW,308,0.0,0.0,74,0.00,,,0.00,Wunderground v.1.13,2013-06-02 05:00:00,
2013-06-02 01:06:00,73.9,65.1,29.96,NW,308,0.0,0.0,74,0.00,,,0.00,Wunderground v.1.13,2013-06-02 05:06:00,
2013-06-02 01:12:00,73.7,64.9,29.96,NW,308,0.0,0.0,74,0.00,,,0.00,Wunderground v.1.13,2013-06-02 05:12:00,
2013-06-02 01:18:00,73.5,64.7,29.95,NW,308,0.0,0.0,74,0.00,,,0.00,Wunderground v.1.13,2013-06-02 05:18:00,
2013-06-02 01:24:00,73.7,64.5,29.95,NW,308,0.0,0.0,73,0.00,,,0.00,Wunderground v.1.13,2013-06-02 05:24:00,
2013-06-02 01:30:00,73.5,64.3,29.95,NW,308,0.0,0.0,73,0.00,,,0.00,Wunderground v.1.13,2013-06-02 05:30:00,
2013-06-02 01:36:00,73.5,64.3,29.96,NW,308,0.0,0.0,73,0.00,,,0.00,Wunderground v.1.13,2013-06-02 05:36:00,
2013-06-02 01:42:00,73.3,64.5,29.96,NW,308,0.0,0.0,74,0.00,,,0.00,Wunderground v.1.13,2013-06-02 05:42:00,
2013-06-02 01:48:00,73.2,64.4,29.96,NW,308,0.0,0.0,74,0.00,,,0.00,Wunderground v.1.13,2013-06-02 05:48:00,
2013-06-02 01:54:00,73.0,64.2,29.96,NW,308,0.0,0.0,74,0.00,,,0.00,Wunderground v.1.13,2013-06-02 05:54:00,
2013-06-02 02:00:00,72.8,64.4,29.96,NW,308,0.0,0.0,75,0.00,,,0.00,Wunderground v.1.13,2013-06-02 06:00:00,
2013-06-02 02:06:00,72.7,64.3,29.95,North,0,0.0,0.0,75,0.00,,,0.00,Wunderground v.1.13,2013-06-02 06:06:00,
2013-06-02 02:12:00,72.5,64.1,29.95,North,0,0.0,0.0,75,0.00,,,0.00,Wunderground v.1.13,2013-06-02 06:12:00,
2013-06-02 02:18:00,72.3,64.3,29.95,North,0,0.0,0.0,76,0.00,,,0.00,Wunderground v.1.13,2013-06-02 06:18:00,
2013-06-02 02:24:00,72.3,64.3,29.95,North,0,0.0,0.0,76,0.00,,,0.00,Wunderground v.1.13,2013-06-02 06:24:00,
2013-06-02 02:30:00,72.3,64.3,29.95,North,0,0.0,1.0,76,0.00,,,0.00,Wunderground v.1.13,2013-06-02 06:30:00,
2013-06-02 02:36:00,72.3,64.3,29.94,North,0,0.0,0.0,76,0.00,,,0.00,Wunderground v.1.13,2013-06-02 06:36:00,
2013-06-02 02:42:00,72.3,64.3,29.94,North,0,0.0,0.0,76,0.00,,,0.00,Wunderground v.1.13,2013-06-02 06:42:00,
2013-06-02 02:48:00,72.1,64.1,29.93,North,0,0.0,0.0,76,0.00,,,0.00,Wunderground v.1.13,2013-06-02 06:48:00,
2013-06-02 02:54:00,72.1,64.1,29.93,NW,304,0.0,0.0,76,0.00,,,0.00,Wunderground v.1.13,2013-06-02 06:54:00,
2013-06-02 03:00:00,72.1,64.5,29.93,NW,304,0.0,0.0,77,0.00,,,0.00,Wunderground v.1.13,2013-06-02 07:00:00,
2013-06-02 03:06:00,72.0,64.4,29.92,NW,304,0.0,0.0,77,0.00,,,0.00,Wunderground v.1.13,2013-06-02 07:06:00,
2013-06-02 03:12:00,72.0,64.4,29.92,NW,304,0.0,0.0,77,0.00,,,0.00,Wunderground v.1.13,2013-06-02 07:12:00,
2013-06-02 03:18:00,71.8,64.2,29.92,NW,304,0.0,0.0,77,0.00,,,0.00,Wunderground v.1.13,2013-06-02 07:18:00,
2013-06-02 03:24:00,71.8,64.6,29.92,NW,304,0.0,0.0,78,0.00,,,0.00,Wunderground v.1.13,2013-06-02 07:24:00,
2013-06-02 03:30:00,71.6,64.4,29.92,NW,305,0.0,0.0,78,0.00,,,0.00,Wunderground v.1.13,2013-06-02 07:30:00,
2013-06-02 03:36:00,71.5,64.6,29.91,NW,305,0.0,0.0,79,0.00,,,0.00,Wunderground v.1.13,2013-06-02 07:36:00,
2013-06-02 03:42:00,71.3,64.4,29.91,NW,305,0.0,0.0,79,0.00,,,0.00,Wunderground v.1.13,2013-06-02 07:42:00,
2013-06-02 03:48:00,71.3,64.4,29.91,NW,305,0.0,0.0,79,0.00,,,0.00,Wunderground v.1.13,2013-06-02 07:48:00,
2013-06-02 03:54:00,71.1,64.3,29.91,NW,305,0.0,0.0,79,0.00,,,0.00,Wunderground v.1.13,2013-06-02 07:54:00,
2013-06-02 04:00:00,70.9,64.4,29.91,NW,305,0.0,0.0,80,0.00,,,0.00,Wunderground v.1.13,2013-06-02 08:00:00,
2013-06-02 04:06:00,70.9,64.4,29.92,NW,305,0.0,0.0,80,0.00,,,0.00,Wunderground v.1.13,2013-06-02 08:06:00,
2013-06-02 04:12:00,70.8,64.7,29.92,NW,305,0.0,0.0,81,0.00,,,0.00,Wunderground v.1.13,2013-06-02 08:12:00,
2013-06-02 04:18:00,70.6,64.5,29.92,NW,305,0.0,0.0,81,0.00,,,0.00,Wunderground v.1.13,2013-06-02 08:18:00,
2013-06-02 04:24:00,70.6,64.8,29.92,NW,305,0.0,0.0,82,0.00,,,0.00,Wunderground v.1.13,2013-06-02 08:24:00,
2013-06-02 04:30:00,70.4,64.6,29.92,NW,305,0.0,0.0,82,0.00,,,0.00,Wunderground v.1.13,2013-06-02 08:30:00,
2013-06-02 04:36:00,70.3,64.5,29.91,NW,305,0.0,0.0,82,0.00,,,0.00,Wunderground v.1.13,2013-06-02 08:36:00,
2013-06-02 04:42:00,70.3,64.9,29.91,NW,305,0.0,0.0,83,0.00,,,0.00,Wunderground v.1.13,2013-06-02 08:42:00,
2013-06-02 04:48:00,70.1,64.7,29.91,NW,305,0.0,0.0,83,0.00,,,0.00,Wunderground v.1.13,2013-06-02 08:48:00,
2013-06-02 04:56:00,70.1,64.7,29.91,NW,305,0.0,0.0,83,0.00,,,0.00,Wunderground v.1.13,2013-06-02 08:56:00,
2013-06-02 05:02:00,69.9,64.8,29.91,NW,305,0.0,0.0,84,0.00,,,0.00,Wunderground v.1.13,2013-06-02 09:02:00,
2013-06-02 05:08:00,69.8,64.7,29.91,NW,305,0.0,0.0,84,0.00,,,0.00,Wunderground v.1.13,2013-06-02 09:08:00,
2013-06-02 05:14:00,69.8,64.7,29.91,NW,305,0.0,0.0,84,0.00,,,0.00,Wunderground v.1.13,2013-06-02 09:14:00,
2013-06-02 05:20:00,69.6,64.5,29.91,NW,305,0.0,0.0,84,0.00,,,0.00,Wunderground v.1.13,2013-06-02 09:20:00,
2013-06-02 05:26:00,69.6,64.9,29.91,NW,305,0.0,0.0,85,0.00,,,0.00,Wunderground v.1.13,2013-06-02 09:26:00,
2013-06-02 05:32:00,69.4,64.7,29.91,NW,305,0.0,0.0,85,0.00,,,0.00,Wunderground v.1.13,2013-06-02 09:32:00,
2013-06-02 05:40:00,69.4,64.7,29.91,NW,305,0.0,0.0,85,0.00,,,0.00,Wunderground v.1.13,2013-06-02 09:40:00,
2013-06-02 05:46:00,69.3,64.9,29.92,NW,305,0.0,0.0,86,0.00,,,0.00,Wunderground v.1.13,2013-06-02 09:46:00,
2013-06-02 05:52:00,69.1,65.1,29.92,NW,305,0.0,0.0,87,0.00,,,0.00,Wunderground v.1.13,2013-06-02 09:52:00,
2013-06-02 05:58:00,69.1,65.1,29.92,NW,305,0.0,0.0,87,0.00,,,0.00,Wunderground v.1.13,2013-06-02 09:58:00,
2013-06-02 06:06:00,68.9,64.9,29.93,NW,305,0.0,0.0,87,0.00,,,0.00,Wunderground v.1.13,2013-06-02 10:06:00,
2013-06-02 06:12:00,68.9,65.2,29.93,NW,305,0.0,0.0,88,0.00,,,0.00,Wunderground v.1.13,2013-06-02 10:12:00,
2013-06-02 06:18:00,68.8,65.1,29.93,NW,305,0.0,0.0,88,0.00,,,0.00,Wunderground v.1.13,2013-06-02 10:18:00,
2013-06-02 06:24:00,68.8,65.4,29.93,NW,305,0.0,0.0,89,0.00,,,0.00,Wunderground v.1.13,2013-06-02 10:24:00,
2013-06-02 06:30:00,68.8,65.4,29.93,NW,305,0.0,0.0,89,0.00,,,0.00,Wunderground v.1.13,2013-06-02 10:30:00,
2013-06-02 06:36:00,68.8,65.7,29.93,NW,305,0.0,0.0,90,0.00,,,0.00,Wunderground v.1.13,2013-06-02 10:36:00,
2013-06-02 06:42:00,68.9,65.8,29.93,NW,305,0.0,0.0,90,0.00,,,0.00,Wunderground v.1.13,2013-06-02 10:42:00,
2013-06-02 06:48:00,68.9,65.8,29.94,NW,319,0.0,0.0,90,0.00,,,0.00,Wunderground v.1.13,2013-06-02 10:48:00,
2013-06-02 06:54:00,69.1,66.0,29.94,NW,319,0.0,0.0,90,0.00,,,0.00,Wunderground v.1.13,2013-06-02 10:54:00,
2013-06-02 07:00:00,69.1,66.0,29.94,NW,319,0.0,0.0,90,0.00,,,0.00,Wunderground v.1.13,2013-06-02 11:00:00,
2013-06-02 07:06:00,69.3,66.2,29.95,NW,319,0.0,0.0,90,0.00,,,0.00,Wunderground v.1.13,2013-06-02 11:06:00,
2013-06-02 07:12:00,69.4,66.3,29.95,NNE,28,0.0,0.0,90,0.00,,,0.00,Wunderground v.1.13,2013-06-02 11:12:00,
2013-06-02 07:18:00,69.4,66.3,29.95,NNE,28,0.0,0.0,90,0.00,,,0.00,Wunderground v.1.13,2013-06-02 11:18:00,
2013-06-02 07:24:00,69.6,66.5,29.95,NNE,28,0.0,0.0,90,0.00,,,0.00,Wunderground v.1.13,2013-06-02 11:24:00,
2013-06-02 07:30:00,69.8,66.4,29.95,NNE,28,0.0,0.0,89,0.00,,,0.00,Wunderground v.1.13,2013-06-02 11:30:00,
2013-06-02 07:36:00,69.9,66.5,29.94,NNE,28,0.0,0.0,89,0.00,,,0.00,Wunderground v.1.13,2013-06-02 11:36:00,
2013-06-02 07:42:00,70.3,66.9,29.94,NW,326,0.0,0.0,89,0.00,,,0.00,Wunderground v.1.13,2013-06-02 11:42:00,
2013-06-02 07:48:00,70.4,66.7,29.93,NW,326,0.0,0.0,88,0.00,,,0.00,Wunderground v.1.13,2013-06-02 11:48:00,
2013-06-02 07:54:00,70.8,66.7,29.93,NW,326,0.0,0.0,87,0.00,,,0.00,Wunderground v.1.13,2013-06-02 11:54:00,
2013-06-02 08:00:00,70.9,66.8,29.93,NW,326,0.0,0.0,87,0.00,,,0.00,Wunderground v.1.13,2013-06-02 12:00:00,
2013-06-02 08:06:00,71.8,66.7,29.93,NW,318,0.0,0.0,84,0.00,,,0.00,Wunderground v.1.13,2013-06-02 12:06:00,
2013-06-02 08:12:00,72.3,67.2,29.93,NW,318,0.0,0.0,84,0.00,,,0.00,Wunderground v.1.13,2013-06-02 12:12:00,
2013-06-02 08:18:00,72.7,67.2,29.95,NW,318,0.0,0.0,83,0.00,,,0.00,Wunderground v.1.13,2013-06-02 12:18:00,
2013-06-02 08:24:00,72.7,67.2,29.95,NW,318,0.0,0.0,83,0.00,,,0.00,Wunderground v.1.13,2013-06-02 12:24:00,
2013-06-02 08:30:00,72.8,67.3,29.95,WNW,288,0.0,1.0,83,0.00,,,0.00,Wunderground v.1.13,2013-06-02 12:30:00,
2013-06-02 08:36:00,72.8,67.0,29.95,WNW,288,0.0,0.0,82,0.00,,,0.00,Wunderground v.1.13,2013-06-02 12:36:00,
2013-06-02 08:42:00,73.0,67.2,29.95,WSW,250,0.0,0.0,82,0.00,,,0.00,Wunderground v.1.13,2013-06-02 12:42:00,
2013-06-02 08:48:00,73.2,67.0,29.95,North,6,0.0,0.0,81,0.00,,,0.00,Wunderground v.1.13,2013-06-02 12:48:00,
2013-06-02 08:54:00,73.3,67.1,29.95,SSW,192,0.0,0.0,81,0.00,,,0.00,Wunderground v.1.13,2013-06-02 12:54:00,
2013-06-02 09:00:00,73.7,67.5,29.95,WNW,294,0.0,0.0,81,0.00,,,0.00,Wunderground v.1.13,2013-06-02 13:00:00,
2013-06-02 09:06:00,74.0,66.7,29.94,West,260,0.0,0.0,78,0.00,,,0.00,Wunderground v.1.13,2013-06-02 13:06:00,
2013-06-02 09:12:00,74.4,66.7,29.94,West,263,0.0,0.0,77,0.00,,,0.00,Wunderground v.1.13,2013-06-02 13:12:00,
2013-06-02 09:18:00,74.7,67.0,29.94,West,264,0.0,0.0,77,0.00,,,0.00,Wunderground v.1.13,2013-06-02 13:18:00,
2013-06-02 09:24:00,74.7,67.0,29.94,North,352,0.0,0.0,77,0.00,,,0.00,Wunderground v.1.13,2013-06-02 13:24:00,
2013-06-02 09:30:00,75.3,67.6,29.94,SW,224,0.0,0.0,77,0.00,,,0.00,Wunderground v.1.13,2013-06-02 13:30:00,
2013-06-02 09:36:00,75.4,66.5,29.93,WNW,298,0.0,0.0,74,0.00,,,0.00,Wunderground v.1.13,2013-06-02 13:36:00,
2013-06-02 09:42:00,74.9,66.8,29.93,NNE,13,0.0,0.0,76,0.00,,,0.00,Wunderground v.1.13,2013-06-02 13:42:00,
2013-06-02 09:48:00,74.6,66.5,29.93,NE,41,0.0,0.0,76,0.00,,,0.00,Wunderground v.1.13,2013-06-02 13:48:00,
2013-06-02 09:54:00,74.6,66.1,29.93,North,0,0.0,0.0,75,0.00,,,0.00,Wunderground v.1.13,2013-06-02 13:54:00,
2013-06-02 10:00:00,74.7,66.6,29.93,North,0,0.0,0.0,76,0.00,,,0.00,Wunderground v.1.13,2013-06-02 14:00:00,
2013-06-02 10:06:00,75.4,66.9,29.93,West,277,0.0,0.0,75,0.00,,,0.00,Wunderground v.1.13,2013-06-02 14:06:00,
2013-06-02 10:12:00,75.8,66.9,29.93,West,277,0.0,0.0,74,0.00,,,0.00,Wunderground v.1.13,2013-06-02 14:12:00,
2013-06-02 10:18:00,76.0,67.5,29.93,West,280,0.0,1.0,75,0.00,,,0.00,Wunderground v.1.13,2013-06-02 14:18:00,
2013-06-02 10:24:00,76.8,66.7,29.93,East,99,0.0,0.0,71,0.00,,,0.00,Wunderground v.1.13,2013-06-02 14:24:00,
2013-06-02 10:30:00,77.4,67.3,29.93,East,99,0.0,0.0,71,0.00,,,0.00,Wunderground v.1.13,2013-06-02 14:30:00,
2013-06-02 10:36:00,77.4,66.8,29.93,NW,325,0.0,0.0,70,0.00,,,0.00,Wunderground v.1.13,2013-06-02 14:36:00,
2013-06-02 10:42:00,77.6,67.0,29.93,NW,325,0.0,0.0,70,0.00,,,0.00,Wunderground v.1.13,2013-06-02 14:42:00,
2013-06-02 10:48:00,78.1,67.5,29.92,NW,325,0.0,0.0,70,0.00,,,0.00,Wunderground v.1.13,2013-06-02 14:48:00,
2013-06-02 10:54:00,78.5,67.9,29.92,NW,325,0.0,0.0,70,0.00,,,0.00,Wunderground v.1.13,2013-06-02 14:54:00,
2013-06-02 11:00:00,78.8,66.9,29.92,NW,316,0.0,0.0,67,0.00,,,0.00,Wunderground v.1.13,2013-06-02 15:00:00,
2013-06-02 11:06:00,78.8,66.9,29.92,NW,316,0.0,0.0,67,0.00,,,0.00,Wunderground v.1.13,2013-06-02 15:06:00,
2013-06-02 11:12:00,79.2,66.4,29.92,NW,316,0.0,0.0,65,0.00,,,0.00,Wunderground v.1.13,2013-06-02 15:12:00,
2013-06-02 11:18:00,79.6,67.7,29.92,NW,316,0.0,0.0,67,0.00,,,0.00,Wunderground v.1.13,2013-06-02 15:18:00,
2013-06-02 11:24:00,79.8,67.4,29.92,NW,316,0.0,0.0,66,0.00,,,0.00,Wunderground v.1.13,2013-06-02 15:24:00,
2013-06-02 11:30:00,79.8,66.5,29.92,NW,316,0.0,0.0,64,0.00,,,0.00,Wunderground v.1.13,2013-06-02 15:30:00,
2013-06-02 11:36:00,80.1,67.7,29.92,NW,306,0.0,0.0,66,0.00,,,0.00,Wunderground v.1.13,2013-06-02 15:36:00,
2013-06-02 11:42:00,80.3,66.1,29.92,NW,305,0.0,0.0,62,0.00,,,0.00,Wunderground v.1.13,2013-06-02 15:42:00,
2013-06-02 11:48:00,80.1,67.7,29.93,NW,316,0.0,0.0,66,0.00,,,0.00,Wunderground v.1.13,2013-06-02 15:48:00,
2013-06-02 11:54:00,80.7,66.5,29.93,WNW,294,0.0,0.0,62,0.00,,,0.00,Wunderground v.1.13,2013-06-02 15:54:00,
2013-06-02 12:00:00,81.2,66.5,29.93,NNW,340,0.0,0.0,61,0.00,,,0.00,Wunderground v.1.13,2013-06-02 16:00:00,
2013-06-02 12:06:00,80.5,66.3,29.93,NW,319,0.0,0.0,62,0.00,,,0.00,Wunderground v.1.13,2013-06-02 16:06:00,
2013-06-02 12:12:00,81.1,66.8,29.93,SW,219,0.0,0.0,62,0.00,,,0.00,Wunderground v.1.13,2013-06-02 16:12:00,
2013-06-02 12:18:00,81.4,66.7,29.92,North,349,0.0,0.0,61,0.00,,,0.00,Wunderground v.1.13,2013-06-02 16:18:00,
2013-06-02 12:24:00,81.6,66.4,29.92,NW,323,0.0,0.0,60,0.00,,,0.00,Wunderground v.1.13,2013-06-02 16:24:00,
2013-06-02 12:30:00,82.4,67.1,29.92,NE,56,0.0,0.0,60,0.00,,,0.00,Wunderground v.1.13,2013-06-02 16:30:00,
2013-06-02 12:36:00,82.8,67.5,29.92,NE,45,0.0,0.0,60,0.00,,,0.00,Wunderground v.1.13,2013-06-02 16:36:00,
2013-06-02 12:42:00,82.8,67.5,29.92,NNE,25,0.0,0.0,60,0.00,,,0.00,Wunderground v.1.13,2013-06-02 16:42:00,
2013-06-02 12:48:00,82.6,66.8,29.92,WNW,296,0.0,0.0,59,0.00,,,0.00,Wunderground v.1.13,2013-06-02 16:48:00,
2013-06-02 12:54:00,82.4,67.1,29.92,WNW,296,0.0,0.0,60,0.00,,,0.00,Wunderground v.1.13,2013-06-02 16:54:00,
2013-06-02 13:00:00,82.4,66.6,29.92,WNW,289,0.0,0.0,59,0.00,,,0.00,Wunderground v.1.13,2013-06-02 17:00:00,
2013-06-02 13:06:00,83.0,66.2,29.91,WNW,289,0.0,0.0,57,0.00,,,0.00,Wunderground v.1.13,2013-06-02 17:06:00,
2013-06-02 13:12:00,83.6,67.8,29.91,WNW,291,0.0,0.0,59,0.00,,,0.00,Wunderground v.1.13,2013-06-02 17:12:00,
2013-06-02 13:18:00,83.4,67.1,29.91,WNW,289,0.0,0.0,58,0.00,,,0.00,Wunderground v.1.13,2013-06-02 17:18:00,
2013-06-02 13:24:00,83.8,66.9,29.91,NW,319,0.0,0.0,57,0.00,,,0.00,Wunderground v.1.13,2013-06-02 17:24:00,
2013-06-02 13:30:00,83.6,65.7,29.91,SSW,213,0.0,0.0,55,0.00,,,0.00,Wunderground v.1.13,2013-06-02 17:30:00,
2013-06-02 13:36:00,83.0,66.7,29.91,South,191,0.0,0.0,58,0.00,,,0.00,Wunderground v.1.13,2013-06-02 17:36:00,
2013-06-02 13:42:00,82.8,65.0,29.91,South,191,0.0,0.0,55,0.00,,,0.00,Wunderground v.1.13,2013-06-02 17:42:00,
2013-06-02 13:48:00,83.6,66.8,29.90,NE,42,0.0,0.0,57,0.00,,,0.00,Wunderground v.1.13,2013-06-02 17:48:00,
2013-06-02 13:54:00,83.8,67.4,29.90,NE,42,0.0,0.0,58,0.00,,,0.00,Wunderground v.1.13,2013-06-02 17:54:00,
2013-06-02 14:00:00,83.0,67.7,29.90,North,1,0.0,0.0,60,0.00,,,0.00,Wunderground v.1.13,2013-06-02 18:00:00,
2013-06-02 14:06:00,83.2,66.4,29.90,NNW,340,0.0,0.0,57,0.00,,,0.00,Wunderground v.1.13,2013-06-02 18:06:00,
2013-06-02 14:12:00,83.4,67.1,29.90,West,275,0.0,0.0,58,0.00,,,0.00,Wunderground v.1.13,2013-06-02 18:12:00,
2013-06-02 14:18:00,83.6,68.7,29.90,West,274,0.0,0.0,61,0.00,,,0.00,Wunderground v.1.13,2013-06-02 18:18:00,
2013-06-02 14:24:00,83.8,66.9,29.90,NNW,347,0.0,0.0,57,0.00,,,0.00,Wunderground v.1.13,2013-06-02 18:24:00,
2013-06-02 14:30:00,83.4,67.6,29.90,NNW,340,0.0,0.0,59,0.00,,,0.00,Wunderground v.1.13,2013-06-02 18:30:00,
2013-06-02 14:36:00,84.0,67.1,29.89,NNW,342,0.0,0.0,57,0.00,,,0.00,Wunderground v.1.13,2013-06-02 18:36:00,
2013-06-02 14:42:00,83.4,67.6,29.89,NNW,335,0.0,0.0,59,0.00,,,0.00,Wunderground v.1.13,2013-06-02 18:42:00,
2013-06-02 14:48:00,83.0,66.7,29.89,SW,220,0.0,0.0,58,0.00,,,0.00,Wunderground v.1.13,2013-06-02 18:48:00,
2013-06-02 14:54:00,82.8,68.4,29.89,SW,220,0.0,0.0,62,0.00,,,0.00,Wunderground v.1.13,2013-06-02 18:54:00,
2013-06-02 15:00:00,82.2,66.9,29.89,West,271,0.0,0.0,60,0.00,,,0.00,Wunderground v.1.13,2013-06-02 19:00:00,
2013-06-02 15:06:00,81.8,66.6,29.89,West,271,0.0,0.0,60,0.00,,,0.00,Wunderground v.1.13,2013-06-02 19:06:00,
2013-06-02 15:12:00,82.8,67.0,29.89,West,271,0.0,0.0,59,0.00,,,0.00,Wunderground v.1.13,2013-06-02 19:12:00,
2013-06-02 15:18:00,83.4,67.6,29.88,NW,311,0.0,0.0,59,0.00,,,0.00,Wunderground v.1.13,2013-06-02 19:18:00,
2013-06-02 15:24:00,83.8,66.9,29.88,NNE,32,0.0,0.0,57,0.00,,,0.00,Wunderground v.1.13,2013-06-02 19:24:00,
2013-06-02 15:30:00,83.6,68.2,29.88,NNW,333,0.0,0.0,60,0.00,,,0.00,Wunderground v.1.13,2013-06-02 19:30:00,
2013-06-02 15:36:00,83.4,68.1,29.87,NNW,333,0.0,0.0,60,0.00,,,0.00,Wunderground v.1.13,2013-06-02 19:36:00,
2013-06-02 15:42:00,83.4,67.1,29.87,NNW,328,0.0,0.0,58,0.00,,,0.00,Wunderground v.1.13,2013-06-02 19:42:00,
2013-06-02 15:48:00,83.0,67.2,29.87,NW,326,0.0,0.0,59,0.00,,,0.00,Wunderground v.1.13,2013-06-02 19:48:00,
2013-06-02 15:54:00,82.6,66.8,29.87,NW,326,0.0,0.0,59,0.00,,,0.00,Wunderground v.1.13,2013-06-02 19:54:00,
2013-06-02 16:00:00,82.6,66.3,29.87,NW,326,0.0,0.0,58,0.00,,,0.00,Wunderground v.1.13,2013-06-02 20:00:00,
2013-06-02 16:06:00,83.2,66.9,29.86,NW,326,0.0,0.0,58,0.00,,,0.00,Wunderground v.1.13,2013-06-02 20:06:00,
2013-06-02 16:12:00,83.2,65.9,29.86,NW,326,0.0,0.0,56,0.00,,,0.00,Wunderground v.1.13,2013-06-02 20:12:00,
2013-06-02 16:18:00,82.4,66.6,29.86,NW,326,0.0,0.0,59,0.00,,,0.00,Wunderground v.1.13,2013-06-02 20:18:00,
2013-06-02 16:24:00,82.0,66.3,29.86,NW,326,0.0,0.0,59,0.00,,,0.00,Wunderground v.1.13,2013-06-02 20:24:00,
2013-06-02 16:30:00,82.4,67.1,29.86,NW,326,0.0,0.0,60,0.00,,,0.00,Wunderground v.1.13,2013-06-02 20:30:00,
2013-06-02 16:36:00,83.0,65.7,29.85,NW,326,0.0,0.0,56,0.00,,,0.00,Wunderground v.1.13,2013-06-02 20:36:00,
2013-06-02 16:42:00,83.4,66.6,29.85,NW,326,0.0,0.0,57,0.00,,,0.00,Wunderground v.1.13,2013-06-02 20:42:00,
2013-06-02 16:48:00,83.4,66.6,29.84,NW,326,0.0,0.0,57,0.00,,,0.00,Wunderground v.1.13,2013-06-02 20:48:00,
2013-06-02 16:54:00,83.6,66.2,29.84,NW,326,0.0,0.0,56,0.00,,,0.00,Wunderground v.1.13,2013-06-02 20:54:00,
2013-06-02 17:00:00,83.4,66.6,29.84,NW,326,0.0,0.0,57,0.00,,,0.00,Wunderground v.1.13,2013-06-02 21:00:00,
2013-06-02 17:06:00,83.0,66.2,29.84,NW,326,0.0,0.0,57,0.00,,,0.00,Wunderground v.1.13,2013-06-02 21:06:00,
2013-06-02 17:12:00,82.8,66.0,29.84,NW,326,0.0,0.0,57,0.00,,,0.00,Wunderground v.1.13,2013-06-02 21:12:00,
2013-06-02 17:18:00,82.8,65.5,29.84,NW,326,0.0,0.0,56,0.00,,,0.00,Wunderground v.1.13,2013-06-02 21:18:00,
2013-06-02 17:24:00,83.0,67.2,29.84,NW,326,0.0,0.0,59,0.00,,,0.00,Wunderground v.1.13,2013-06-02 21:24:00,
2013-06-02 17:30:00,83.2,66.9,29.84,NW,326,0.0,0.0,58,0.00,,,0.00,Wunderground v.1.13,2013-06-02 21:30:00,
2013-06-02 17:36:00,82.8,66.0,29.83,NW,326,0.0,0.0,57,0.00,,,0.00,Wunderground v.1.13,2013-06-02 21:36:00,
2013-06-02 17:42:00,82.6,65.8,29.83,NW,326,0.0,0.0,57,0.00,,,0.00,Wunderground v.1.13,2013-06-02 21:42:00,
2013-06-02 17:48:00,82.6,65.8,29.83,NW,326,0.0,0.0,57,0.00,,,0.00,Wunderground v.1.13,2013-06-02 21:48:00,
2013-06-02 17:54:00,82.6,65.8,29.83,NW,326,0.0,0.0,57,0.00,,,0.00,Wunderground v.1.13,2013-06-02 21:54:00,
2013-06-02 18:00:00,82.8,66.0,29.83,NW,326,0.0,0.0,57,0.00,,,0.00,Wunderground v.1.13,2013-06-02 22:00:00,
2013-06-02 18:06:00,82.8,65.5,29.83,NW,326,0.0,0.0,56,0.00,,,0.00,Wunderground v.1.13,2013-06-02 22:06:00,
2013-06-02 18:12:00,82.6,66.8,29.83,NW,326,0.0,0.0,59,0.00,,,0.00,Wunderground v.1.13,2013-06-02 22:12:00,
2013-06-02 18:18:00,82.4,65.6,29.83,NW,326,0.0,0.0,57,0.00,,,0.00,Wunderground v.1.13,2013-06-02 22:18:00,
2013-06-02 18:24:00,82.0,66.7,29.83,NW,326,0.0,0.0,60,0.00,,,0.00,Wunderground v.1.13,2013-06-02 22:24:00,
2013-06-02 18:30:00,81.8,66.6,29.83,NW,326,0.0,0.0,60,0.00,,,0.00,Wunderground v.1.13,2013-06-02 22:30:00,
2013-06-02 18:36:00,81.2,66.9,29.82,NW,326,0.0,0.0,62,0.00,,,0.00,Wunderground v.1.13,2013-06-02 22:36:00,
2013-06-02 18:42:00,80.9,67.1,29.82,NW,326,0.0,0.0,63,0.00,,,0.00,Wunderground v.1.13,2013-06-02 22:42:00,
2013-06-02 18:48:00,80.7,67.4,29.82,NW,326,0.0,0.0,64,0.00,,,0.00,Wunderground v.1.13,2013-06-02 22:48:00,
2013-06-02 18:54:00,80.1,67.7,29.82,NW,325,0.0,0.0,66,0.00,,,0.00,Wunderground v.1.13,2013-06-02 22:54:00,
2013-06-02 19:00:00,79.8,67.9,29.82,NW,326,0.0,0.0,67,0.00,,,0.00,Wunderground v.1.13,2013-06-02 23:00:00,
2013-06-02 19:06:00,79.6,68.1,29.83,NW,326,0.0,0.0,68,0.00,,,0.00,Wunderground v.1.13,2013-06-02 23:06:00,
2013-06-02 19:12:00,79.4,68.3,29.83,NW,326,0.0,0.0,69,0.00,,,0.00,Wunderground v.1.13,2013-06-02 23:12:00,
2013-06-02 19:18:00,79.2,68.6,29.83,NW,326,0.0,0.0,70,0.00,,,0.00,Wunderground v.1.13,2013-06-02 23:18:00,
2013-06-02 19:24:00,78.8,69.0,29.83,NW,326,0.0,0.0,72,0.00,,,0.00,Wunderground v.1.13,2013-06-02 23:24:00,
2013-06-02 19:30:00,78.6,68.8,29.83,NW,326,0.0,0.0,72,0.00,,,0.00,Wunderground v.1.13,2013-06-02 23:30:00,
2013-06-02 19:36:00,78.5,69.1,29.84,NW,326,0.0,0.0,73,0.00,,,0.00,Wunderground v.1.13,2013-06-02 23:36:00,
2013-06-02 19:42:00,78.1,69.5,29.84,NW,326,0.0,0.0,75,0.00,,,0.00,Wunderground v.1.13,2013-06-02 23:42:00,
2013-06-02 19:48:00,77.9,69.7,29.84,NW,326,0.0,0.0,76,0.00,,,0.00,Wunderground v.1.13,2013-06-02 23:48:00,
2013-06-02 19:54:00,77.7,69.5,29.84,NW,326,0.0,0.0,76,0.00,,,0.00,Wunderground v.1.13,2013-06-02 23:54:00,
2013-06-02 20:00:00,77.4,69.6,29.84,NW,326,0.0,0.0,77,0.00,,,0.00,Wunderground v.1.13,2013-06-03 00:00:00,
2013-06-02 20:06:00,77.0,68.9,29.84,NW,326,0.0,0.0,76,0.00,,,0.00,Wunderground v.1.13,2013-06-03 00:06:00,
2013-06-02 20:12:00,77.0,69.2,29.84,NW,326,0.0,0.0,77,0.00,,,0.00,Wunderground v.1.13,2013-06-03 00:12:00,
2013-06-02 20:18:00,76.5,68.7,29.85,NW,326,0.0,0.0,77,0.00,,,0.00,Wunderground v.1.13,2013-06-03 00:18:00,
2013-06-02 20:24:00,76.7,68.9,29.85,NW,326,0.0,0.0,77,0.00,,,0.00,Wunderground v.1.13,2013-06-03 00:24:00,
2013-06-02 20:30:00,77.0,68.9,29.85,NW,326,0.0,0.0,76,0.00,,,0.00,Wunderground v.1.13,2013-06-03 00:30:00,
2013-06-02 20:36:00,77.2,68.7,29.85,NW,326,0.0,0.0,75,0.00,,,0.00,Wunderground v.1.13,2013-06-03 00:36:00,
2013-06-02 20:42:00,77.4,68.5,29.85,NW,326,0.0,0.0,74,0.00,,,0.00,Wunderground v.1.13,2013-06-03 00:42:00,
2013-06-02 20:48:00,77.0,68.1,29.84,NW,326,0.0,0.0,74,0.00,,,0.00,Wunderground v.1.13,2013-06-03 00:48:00,
2013-06-02 20:54:00,77.2,68.3,29.84,NW,326,0.0,0.0,74,0.00,,,0.00,Wunderground v.1.13,2013-06-03 00:54:00,
2013-06-02 21:00:00,76.8,69.4,29.84,NW,326,0.0,0.0,78,0.00,,,0.00,Wunderground v.1.13,2013-06-03 01:00:00,
2013-06-02 21:06:00,76.1,70.9,29.84,NW,326,0.0,0.0,84,1.95,,,0.09,Wunderground v.1.13,2013-06-03 01:06:00,
2013-06-02 21:12:00,74.6,70.8,29.84,NW,326,0.0,0.0,88,0.41,,,0.12,Wunderground v.1.13,2013-06-03 01:12:00,
2013-06-02 21:18:00,73.7,71.5,29.84,NW,326,0.0,0.0,93,0.10,,,0.13,Wunderground v.1.13,2013-06-03 01:18:00,
2013-06-02 21:24:00,73.2,71.4,29.84,NW,326,0.0,0.0,94,0.08,,,0.13,Wunderground v.1.13,2013-06-03 01:24:00,
2013-06-02 21:30:00,73.0,71.5,29.84,NW,326,0.0,0.0,95,0.04,,,0.13,Wunderground v.1.13,2013-06-03 01:30:00,
2013-06-02 21:36:00,72.8,71.3,29.84,NW,326,0.0,0.0,95,0.00,,,0.13,Wunderground v.1.13,2013-06-03 01:36:00,
2013-06-02 21:42:00,72.8,71.3,29.84,NW,326,0.0,0.0,95,0.00,,,0.13,Wunderground v.1.13,2013-06-03 01:42:00,
2013-06-02 21:48:00,72.5,71.0,29.84,NW,326,0.0,0.0,95,0.00,,,0.13,Wunderground v.1.13,2013-06-03 01:48:00,
2013-06-02 21:54:00,72.5,71.0,29.84,NW,326,0.0,0.0,95,0.00,,,0.13,Wunderground v.1.13,2013-06-03 01:54:00,
2013-06-02 22:00:00,72.3,70.8,29.84,NW,326,0.0,0.0,95,0.00,,,0.13,Wunderground v.1.13,2013-06-03 02:00:00,
2013-06-02 22:06:00,72.3,70.8,29.84,NW,326,0.0,0.0,95,0.00,,,0.13,Wunderground v.1.13,2013-06-03 02:06:00,
2013-06-02 22:12:00,72.1,70.6,29.84,NW,326,0.0,0.0,95,0.00,,,0.13,Wunderground v.1.13,2013-06-03 02:12:00,
2013-06-02 22:18:00,72.1,70.9,29.85,NW,326,0.0,0.0,96,0.00,,,0.13,Wunderground v.1.13,2013-06-03 02:18:00,
2013-06-02 22:24:00,72.0,70.8,29.85,NW,326,0.0,0.0,96,0.00,,,0.13,Wunderground v.1.13,2013-06-03 02:24:00,
2013-06-02 22:30:00,72.0,70.8,29.85,NW,326,0.0,0.0,96,0.00,,,0.13,Wunderground v.1.13,2013-06-03 02:30:00,
2013-06-02 22:36:00,72.0,70.5,29.85,NW,326,0.0,0.0,95,0.00,,,0.13,Wunderground v.1.13,2013-06-03 02:36:00,
2013-06-02 22:42:00,72.0,70.5,29.85,NW,326,0.0,0.0,95,0.00,,,0.13,Wunderground v.1.13,2013-06-03 02:42:00,
2013-06-02 22:48:00,72.1,70.6,29.87,NW,326,0.0,0.0,95,0.00,,,0.13,Wunderground v.1.13,2013-06-03 02:48:00,
2013-06-02 22:54:00,72.3,70.2,29.87,NW,326,0.0,0.0,93,0.00,,,0.13,Wunderground v.1.13,2013-06-03 02:54:00,
2013-06-02 23:00:00,72.5,70.0,29.87,NW,326,0.0,0.0,92,0.00,,,0.13,Wunderground v.1.13,2013-06-03 03:00:00,
2013-06-02 23:06:00,72.7,70.2,29.87,NW,326,0.0,0.0,92,0.00,,,0.13,Wunderground v.1.13,2013-06-03 03:06:00,
2013-06-02 23:12:00,72.5,70.0,29.87,NW,326,0.0,0.0,92,0.00,,,0.14,Wunderground v.1.13,2013-06-03 03:12:00,
2013-06-02 23:18:00,72.5,70.0,29.88,NW,326,0.0,0.0,92,0.28,,,0.16,Wunderground v.1.13,2013-06-03 03:18:00,
2013-06-02 23:24:00,72.3,70.2,29.88,NW,326,0.0,0.0,93,0.23,,,0.19,Wunderground v.1.13,2013-06-03 03:24:00,
2013-06-02 23:30:00,72.0,70.2,29.88,NW,326,0.0,0.0,94,0.17,,,0.21,Wunderground v.1.13,2013-06-03 03:30:00,
2013-06-02 23:36:00,71.8,70.3,29.88,NW,326,0.0,0.0,95,0.16,,,0.23,Wunderground v.1.13,2013-06-03 03:36:00,
2013-06-02 23:42:00,71.8,70.3,29.88,NW,326,0.0,0.0,95,0.10,,,0.23,Wunderground v.1.13,2013-06-03 03:42:00,
2013-06-02 23:48:00,71.6,70.4,29.88,NW,326,0.0,0.0,96,0.09,,,0.24,Wunderground v.1.13,2013-06-03 03:48:00,
2013-06-02 23:54:00,71.6,70.4,29.88,NW,326,0.0,0.0,96,0.05,,,0.24,Wunderground v.1.13,2013-06-03 03:54:00,